Location: Unspecified
(0.0000°N, 0.0000°E)
Time: 08:48:57
(UTC+00:00)

MANDRAKE 2 BAKER - Pass Details

Date: 18 February 2026
Orbit: 402 x 407 km, 97.7° (Epoch: 7 March)

Event Time Altitude Azimuth Distance (km) Brightness Sun altitude
Rises 05:32:17 0° 169° (S) 2,333 ? -10.2°
Reaches altitude 10° 05:34:17 10° 169° (S) 1,467 ? -9.7°
Maximum altitude 05:37:25 90° 249° (WSW) 409 ? -8.9°
Drops below altitude 10° 05:40:31 10° 349° (NNW) 1,453 ? -8.2°
Sets 05:42:28 0° 349° (N) 2,307 ? -7.7°
